Weather past 2 weeks in Adamstown, Pitcairn Islands

Now
78 °F

Scattered clouds.


Feels Like: 79 °F
Forecast: 77 / 81 °F
Wind: 8 mph from North

Location: Rikitea

Current Time: Jan 28, 2015 at 9:23:30 AM

Latest Report: Jan 28, 2015 at 8:00 AM


Visibility: 19 mi

Pressure: 29.97 "Hg

Humidity: 84%

Dew point: 72 °F

Location of AdamstownLocation

Historic Weather in Adamstown — Graph

°F

Adamstown temperature yesterday

Maximum temperature yesterday: 79 °F (at 3:00 PM)
Minimum temperature yesterday: 75 °F (at 12:00 PM)
Average temperature yesterday: 77 °F

Past Weeks' High & Low Weather Summary

 TemperatureHumidityPressure
High85 °F (Jan 13, 1:00 PM)97% (Jan 20, 10:00 PM)30.03 "Hg (Jan 20, 10:00 PM)
Low72 °F (Jan 16, 9:00 AM)65% (Jan 25, 2:00 PM)29.79 "Hg (Jan 27, 4:00 AM)
Average77 °F86%29.91 "Hg
* Reported Jan 13 8:00 AM — Jan 28 8:00 AM, Adamstown, Weather by CustomWeather, © 2014

Note: Actual official high and low records may vary slightly from our data, if they occured in-between our weather recording intervals... More about our weather records

Advertising

Adamstown weather history for previous 24 hours

 ConditionsComfort  
Time TempWeatherWind HumidityBarometerVisibility
8:00 AM
Jan 28
78 °FScattered clouds.8 mph84%29.97 "Hg19 mi
7:00 AM75 °FPartly sunny.9 mph90%29.96 "Hg19 mi
6:00 AM74 °FMild.7 mph89%29.95 "HgN/A
5:00 AM74 °FMild.6 mph91%29.94 "HgN/A
4:00 AM75 °FMild.9 mph90%29.92 "HgN/A
3:00 AM76 °FMild.12 mph88%29.92 "HgN/A
2:00 AM76 °FMild.9 mph92%29.94 "HgN/A
1:00 AM76 °FMild.8 mph92%29.95 "HgN/A
12:00 AM76 °FMild.8 mph90%29.96 "HgN/A
11:00 PM
Jan 27
76 °FMild.6 mph92%29.97 "HgN/A
10:00 PM76 °FMild.6 mph93%29.96 "HgN/A
9:00 PM77 °FMild.3 mph90%29.92 "HgN/A
8:00 PM76 °FMild.5 mph89%29.90 "HgN/A
7:00 PM76 °FMild.2 mph90%29.86 "HgN/A
6:00 PM77 °FThunderstorms. Low clouds.8 mph90%29.83 "Hg12 mi
5:00 PM78 °FThunderstorms. Low clouds.3 mph88%29.81 "Hg19 mi
4:00 PM78 °FThunderstorms. Low clouds.5 mph89%29.79 "Hg12 mi
3:00 PM79 °FOvercast.3 mph83%29.79 "Hg19 mi
2:00 PM78 °FOvercast.6 mph88%29.80 "Hg19 mi
1:00 PM77 °FOvercast.6 mph87%29.81 "Hg19 mi
12:00 PM75 °FLight rain. Overcast.7 mph94%29.85 "Hg9 mi
11:00 AM79 °FOvercast.9 mph86%29.85 "Hg19 mi
10:00 AM78 °FPartly sunny.5 mph87%29.84 "Hg6 mi
9:00 AM77 °FOvercast.2 mph88%29.84 "Hg12 mi
Weather by CustomWeather, © 2014

See weather overviewHow to use our weather pages